Miscellaneous Local Product
Issued by NWS Hastings, NE

Home | Current Version | Previous Version | Graphics & Text | Print | Product List | Glossary On
Versions: 1 2 3 4 5 6 7 8 9 10 11 12 13 14 15 16 17 18 19 20 21 22 23 24 25 26 27 28 29 30 31 32 33 34 35 36 37 38 39 40 41 42 43 44 45 46 47 48 49 50
309
AXUS43 KGID 240202
MISGRI

GID CWA HOURLY WEATHER ROUNDUP
NATIONAL WEATHER SERVICE HASTINGS NE
900 PM CDT THU MAR 23 2017

NOTE: "FAIR" INDICATES FEW OR NO CLOUDS BELOW 12,000 FEET WITH NO
SIGNIFICANT WEATHER AND/OR OBSTRUCTIONS TO VISIBILITY.

...SOUTH CENTRAL NEBRASKA...

CITY           SKY/WX    TMP DP  RH WIND       PRES   REMARKS
GRAND ISLAND   CLOUDY    68  58  70 S18G28    29.54F
HASTINGS       CLOUDY    71  55  56 S17G26    29.55F
KEARNEY        MOCLDY    72  52  49 S31G37    29.50F
ORD            TSTM      59  51  75 W13       29.57R
YORK           CLOUDY    68  55  64 S20       29.56F
AURORA         CLOUDY    68  56  64 S22G29    29.53F
LEXINGTON      CLOUDY    75  49  39 S16G24    29.49R
HOLDREGE       CLOUDY    74  48  40 S37G46    29.53R
HEBRON         CLOUDY    71  54  54 S16G23    29.64R

...NEBRASKA PANHANDLE...

CITY           SKY/WX    TMP DP  RH WIND       PRES   REMARKS
CHADRON        CLOUDY    45  42  89 N17G31    29.82R
ALLIANCE       CLOUDY    48  41  76 N25G35    29.70R
SCOTTSBLUFF    LGT RAIN  49  43  80 N17G28    29.75R
SIDNEY         TSTM      55  41  59 N17G31    29.66R

...WESTERN AND NORTH CENTRAL NEBRASKA...

CITY           SKY/WX    TMP DP  RH WIND       PRES   REMARKS
VALENTINE      CLOUDY    56  39  53 N20G32    29.67S
AINSWORTH      CLOUDY    53  50  89 NE9       29.62F
ONEILL         CLOUDY    55  55 100 NE8       29.63F THUNDER FOG
BROKEN BOW     TSTM      55  31  39 MISG      29.60R
IMPERIAL       CLOUDY    71  30  21 N6        29.49R
NORTH PLATTE   CLOUDY    61  57  87 NE16      29.51S
MCCOOK         CLOUDY    73  48  41 S33G51    29.45S HAZE

...EASTERN NEBRASKA...

CITY           SKY/WX    TMP DP  RH WIND       PRES   REMARKS
NORFOLK        CLOUDY    60  51  72 SE15      29.60S
SO SIOUX CITY  CLOUDY    55  45  68 SE6       29.65S
TEKAMAH        CLOUDY    63  50  62 SE12      29.63F
COLUMBUS       CLOUDY    63  52  67 E7        29.61F
ALBION         CLOUDY    64  54  70 E12       29.57F
OMAHA EPPLEY   CLOUDY    72  51  47 SE20      29.64S
OFFUTT AFB     MOCLDY    72  51  46 SE16      29.66R
MILLARD        MOCLDY    73  53  49 SE13      29.64F
LINCOLN        CLOUDY    71  52  50 S23       29.62F
NEBRASKA CITY  CLOUDY    71  43  36 S18       29.69R
BEATRICE       CLOUDY    71  52  50 S12       29.67R
FALLS CITY     CLOUDY    72  47  40 S20G28    29.70R

...NORTHERN KANSAS...

CITY           SKY/WX    TMP DP  RH WIND       PRES   REMARKS
GOODLAND       CLOUDY    70  37  29 S28G37    29.51R
HILL CITY      LGT RAIN  61  54  77 W18G30    29.66R
NORTON         LGT RAIN  57  52  82 SW35G41   29.66R
PHILLIPSBURG   CLEAR     75  52  43 SE18G29   29.58R
HAYS             N/A     73  50  44 S16       29.61R
RUSSELL        CLOUDY    74  48  39 S25G35    29.58R
CONCORDIA      MOCLDY    71  53  52 SE9       29.64R
SALINA         MOCLDY    75  50  41 S14       29.65R
TOPEKA         PTCLDY    71  50  47 SE15G23   29.74R



USA.gov is the U.S. government's official web portal to all federal, state and local government web resources and services.